Date,TemperatureHighF,TemperatureAvgF,TemperatureLowF,DewpointHighF,DewpointAvgF,DewpointLowF,HumidityHigh,HumidityAvg,HumidityLow,PressureMaxIn,PressureMinIn,WindSpeedMaxMPH,WindSpeedAvgMPH,GustSpeedMaxMPH,PrecipitationSumIn
2013-2-1,22.9,20.0,17.2,17.3,14.2,10.0,92,78,67,30.20,29.70,21,4,21,0.00
2013-2-2,21.3,18.1,13.7,15.9,12.0,7.7,92,77,66,30.20,29.98,18,2,18,0.00
2013-2-3,25.3,18.8,10.9,18.0,14.0,8.8,92,82,63,29.99,29.79,16,1,16,0.00
2013-2-4,23.0,19.8,16.6,15.1,12.2,8.1,80,72,53,29.96,29.86,20,3,23,0.00
2013-2-5,28.3,22.3,16.4,19.9,16.3,13.2,88,78,64,29.98,29.84,10,1,10,0.01
2013-2-6,27.8,21.7,12.8,23.8,14.6,9.3,91,74,59,30.40,30.01,21,4,21,0.00
2013-2-7,31.9,24.1,12.5,23.9,16.8,9.2,87,74,63,30.44,30.09,16,2,16,0.00
2013-2-8,35.9,30.1,18.8,33.3,26.8,17.4,97,88,70,30.09,29.76,10,1,11,0.07
2013-2-9,21.1,18.2,11.3,18.9,16.4,9.2,94,92,90,30.43,30.07,0,0,0,0.00
2013-2-10,35.1,20.2,5.0,29.2,17.4,2.5,100,89,78,30.43,29.97,10,1,10,0.01
2013-2-11,52.5,39.5,34.0,43.7,33.1,28.0,88,78,67,29.98,29.53,39,6,39,0.27
2013-2-12,36.1,33.4,31.6,30.9,28.4,25.9,92,82,74,29.96,29.68,29,5,29,0.00
2013-2-13,40.5,32.1,23.0,28.2,25.8,21.0,92,78,57,29.91,29.71,10,1,10,0.00
2013-2-14,42.4,33.6,22.9,36.3,29.1,20.9,98,84,59,29.93,29.77,14,1,14,0.12
2013-2-15,39.1,34.9,25.4,36.4,26.3,17.9,93,71,54,30.06,29.76,28,5,28,0.00
2013-2-16,31.1,25.3,22.0,20.1,17.5,13.7,85,72,52,30.06,29.92,12,1,12,0.00
2013-2-17,22.0,16.1,12.4,18.9,12.4,5.2,92,85,69,30.20,29.90,27,4,27,0.00
2013-2-18,30.3,20.8,10.7,20.1,13.9,8.1,93,75,56,30.30,29.92,12,1,12,0.03
2013-2-19,45.6,35.1,26.7,38.2,27.9,19.5,91,75,58,29.93,29.53,29,4,29,0.01
2013-2-20,26.7,22.7,20.1,22.4,15.7,12.8,92,74,62,30.06,29.74,30,7,30,0.00
2013-2-21,22.7,18.7,13.5,18.6,14.4,8.5,91,83,76,30.42,30.03,23,4,23,0.00
2013-2-22,34.9,28.2,21.9,29.3,23.8,17.8,93,84,73,30.41,30.01,21,2,21,0.00
2013-2-23,39.7,34.9,32.1,34.5,30.5,26.3,94,84,79,30.01,29.86,19,2,19,0.11
2013-2-24,33.6,31.5,29.9,28.6,26.5,24.7,93,82,73,30.05,29.84,21,3,21,0.01
2013-2-25,37.2,33.2,27.7,30.3,28.3,25.5,92,82,69,30.23,30.05,12,1,12,0.02
2013-2-26,44.5,34.9,25.6,33.5,29.2,23.7,97,81,58,30.24,29.81,20,4,20,0.20
2013-2-27,36.1,34.0,33.1,35.6,33.4,32.6,98,98,97,29.81,29.56,15,1,16,0.66
2013-2-28,37.7,34.8,33.4,34.9,33.4,32.5,98,95,86,29.71,29.53,12,2,12,0.45